This is the latest recevied weather packets stored in our database for station/object N2QKV-13. If no packets are shown the sender has not sent any weather packets the latest 10 day(s).
| Time | Temp. | Humidity | Pressure | Rain* | Wind** | Luminosity | Snow |
|---|---|---|---|---|---|---|---|
| 1777562404 | 12.22° C | 89% | 1007.8 hPa | 0 mm | - | - | - |
| 1777562104 | 12.22° C | 90% | 1007.9 hPa | 0 mm | - | - | - |
| 1777561804 | 12.22° C | 90% | 1007.9 hPa | 0 mm | - | - | - |
| 1777561503 | 11.67° C | 90% | 1007.9 hPa | 0 mm | - | - | - |
| 1777561203 | 12.22° C | 90% | 1007.8 hPa | 0 mm | - | - | - |
| 1777560903 | 11.67° C | 91% | 1007.9 hPa | 0 mm | - | - | - |
| 1777560604 | 11.67° C | 91% | 1008.1 hPa | 0 mm | - | - | - |
| 1777560303 | 11.67° C | 91% | 1008.1 hPa | 0 mm | - | - | - |
| 1777560004 | 11.67° C | 91% | 1007.8 hPa | 0 mm | - | - | - |
| 1777559704 | 11.67° C | 91% | 1007.8 hPa | 0 mm | - | - | - |
| 1777559403 | 11.67° C | 92% | 1008.2 hPa | 0 mm | - | - | - |
| 1777559103 | 11.11° C | 92% | 1007.5 hPa | 0 mm | - | - | - |
| 1777558804 | 11.11° C | 92% | 1007.5 hPa | 0 mm | - | - | - |
| 1777558504 | 11.11° C | 92% | 1007.5 hPa | 0 mm | - | - | - |
| 1777558203 | 11.11° C | 92% | 1007.5 hPa | 0 mm | - | - | - |
| 1777557904 | 11.11° C | 92% | 1007.3 hPa | 0 mm | - | - | - |
| 1777557604 | 10.56° C | 92% | 1007.4 hPa | 0 mm | - | - | - |
| 1777557303 | 11.11° C | 92% | 1007.4 hPa | 0 mm | - | - | - |
| 1777557004 | 10.56° C | 92% | 1007.4 hPa | 0 mm | - | - | - |
| 1777556704 | 10.56° C | 92% | 1007.5 hPa | 0 mm | - | - | - |
| 1777556404 | 10.56° C | 92% | 1007.6 hPa | 0 mm | - | - | - |
| 1777556104 | 10.56° C | 92% | 1007.6 hPa | 0 mm | - | - | - |
| 1777555804 | 10.56° C | 92% | 1007.3 hPa | 0 mm | - | - | - |
| 1777555504 | 10.56° C | 92% | 1007.3 hPa | 0 mm | - | - | - |
| 1777555204 | 10.56° C | 93% | 1007.3 hPa | 0 mm | - | - | - |
* Rain latest hour (hover to see other rain measurements)
** Current wind speed in m/s (hover to see current wind gust speed)